Hourly Data Report for July 20, 2021

BORDEN AWOS
ONTARIO
Current Station Operator: DND

44°16'20.000" N
79°54'42.000" W
222.50 m
611B002
71534
YBN

Download Data

Hourly Data (July 2021)
Hourly Data Report for July 20, 2021
TIME
LST
Temp Definition
°C
Dew Point Definition
°C
Rel Hum Definition
%
Precip. Amount Definition
mm

Wind Dir Definition
10's deg

Wind Spd Definition
km/h
Visibility Definition
km
Stn Press Definition
kPa
Hmdx Definition


Wind Chill Definition


Weather Definition


00:00 16.8 16.1 96     0 8.0 98.97     LegendNANA
01:00 16.8 16.3 97     0 6.4 98.93     LegendNANA
02:00 17.0 16.1 94   22 4 6.4 98.88     LegendNANA
03:00
04:00 15.9 15.0 94   19 4 9.7 98.80     LegendNANA
05:00 15.2 14.7 97   10 4 8.0 98.84     LegendNANA
06:00 17.5 16.4 93   22 4 9.7 98.81     LegendNANA
07:00 20.9 18.0 84   21 6 11.3 98.80 27   LegendNANA
08:00 23.4 17.7 70   23 9 14.5 98.76 29   LegendNANA
09:00 24.8 18.3 67   25 7 14.5 98.73 31   LegendNANA
10:00 26.2 18.6 63   32 6 14.5 98.69 33   LegendNANA
11:00 28.2 15.9 47   27 15 14.5 98.65 33   LegendNANA
12:00 28.9 16.8 48   27 17 14.5 98.64 34   LegendNANA
13:00 24.8 19.0 70   34 19 14.5 98.65 32   LegendNANA
14:00 22.4 16.2 68   33 35 14.5 98.78 27   LegendNANA
15:00 18.8 18.0 95   31 7 14.5 98.68     LegendNANA
16:00 18.3 17.8 97   34 9 11.3 98.68     Rain
17:00 19.7 18.1 91   33 15 14.5 98.64     LegendNANA
18:00
19:00 19.0 17.6 92   31 9 14.5 98.76     LegendNANA
20:00 18.6 17.3 92   32 7 14.5 98.79     LegendNANA
21:00 17.9 16.0 89   35 15 14.5 98.85     LegendNANA
22:00 17.2 14.9 86   1 15 14.5 98.91     LegendNANA
23:00                      

Notes on Data Quality.

Legend

  • E = Estimated
  • M = Missing
  • NA = Not Available*
  • [empty] = Indicates an unobserved value
Date modified: